Kezdőlap
METAR-TAF:

METAR-TAF

Repülőterek :

Brenner Field

Falls City, Nebraska, Amerikai Egyesült Államok

földrajzi szélesség: 40-04-44N, földrajzi hosszúság: 095-35-31W, magasság: 300 m

Jelenlegi meteorológiai megfigyelések

A jelentés 51 perccel ezelõtt készült, 15:53 UTC
Szélcsend
Hőmérséklet 2°C
Páratartalom 69%
Légköri nyomás 1022 hPa
Látótávolság: 16.1 km
Derült ég

METAR: KFNB 081553Z AUTO 00000KT 10SM CLR 02/M03 A3019 RMK AO2 SLP231 T00221028

Idő: 10:44 (16:44 UTC)


TAF: hiányzik

Meteorológiai megfigyelések és előrejelzések több, mint 4000 repülőtéren (METAR és TAF jelentéseket).

A térképen piros és sárga pontok jelzik az elérhető meteorológiai állomásokat.

Mozgassa az egeret a pont fölött, hogy megjelenjen az állomás neve.

Azután kattintson az időjárási megfigyelések és előrejelzések megtekintéséhez.

A térkép megváltoztatása: kattintson a fekete keresztel jelölt zöld gombra ráközelítéshez, a vonallal jelölt zöld gombra távolításhoz, vagy a zöld nyilakra a szomszédos térképek eléréséhez.


METAR-TAF: